Orbital Elements at Epoch 2459178.5 (2020-Nov-25.0) TDB
Reference: JPL 2 (heliocentric ecliptic J2000)
Element | Value | Uncertainty (1-sigma) | Units |
e | .6055327562103769 | 0.0010818 | |
a | 1.991913500045648 | 0.0048957 | au |
q | .7857446282303482 | 0.00022371 | au |
i | 9.788645071679269 | 0.012999 | deg |
node | 242.1857246991233 | 0.00078571 | deg |
peri | 117.1733812811277 | 0.00087047 | deg |
M | 14.7033921554621 | 0.062567 | deg |
tp | 2459136.560892977930 (2020-Oct-14.06089298) | 0.023856 | TDB |
period | 1026.843218783122 2.81 | 3.7857 0.01036 | d yr |
n | .3505890611291413 | 0.0012925 | deg/d |
Q | 3.198082371860949 | 0.0078602 | au |
|
| | Orbit Determination Parameters
Additional Information
|